Location: Unspecified
(40.7945°N, 111.1337°W)
Time: 09:26:30
(UTC-06:00)

Altair - Pass Details

Date: 28 June 2019
Orbit: 1501 x 1683 km, 47.2° (Epoch: 21 August)

Event Time Altitude Azimuth Distance (km) Brightness Sun altitude
Rises 00:26:39 0° 294° (WNW) 4,776 10.6 -24.4°
Reaches altitude 10° 00:29:42 10° 296° (WNW) 3,814 10.1 -24.5°
Maximum altitude 00:39:32 81° 24° (NNE) 1,664 7.6 -24.9°
Drops below altitude 10° 00:49:39 10° 112° (ESE) 3,925 9.3 -25.3°
Enters shadow 00:50:09 - 112° (ESE) 4,076 9.4 -25.3°
